Miscellaneous Local Product
Issued by NWS North Platte, NE

Home | Current Version | Previous Version | Graphics & Text | Print | Product List | Glossary On
Versions: 1 2 3 4 5 6 7 8 9 10 11 12 13 14 15 16 17 18 19 20 21 22 23 24 25 26 27 28 29 30 31 32 33 34 35 36 37 38 39 40 41 42 43 44 45 46 47 48 49 50
000
AXUS43 KLBF 260610
MISLBF


WESTERN AND NORTH CENTRAL NEBRASKA HOURLY WEATHER ROUNDUP
NATIONAL WEATHER SERVICE NORTH PLATTE NE
1200 AM CST THU FEB 26 2015

***STATIONS NOT REPORTING VARIABLES SUCH AS SKY/WEATHER OR
PRESSURE ARE PROVIDED BY THE NEBRASKA DEPARTMENT OF
ROADS...RAWS...AND APRS NETWORKS...AND ARE NOT UNDER
NATIONAL WEATHER SERVICE QUALITY CONTROL***

...OBSERVATIONS IN AND NEAR THE EASTERN PANHANDLE OF NEBRASKA...

CITY           SKY/WX    TMP DP  RH WIND       PRES   REMARKS
PINE RIDGE     CLOUDY    10   4  76 NE7       30.31R WCI  -1
CHADRON        LGT SNOW  13   7  77 NE6       30.33R WCI   4
ALLIANCE       CLOUDY    13   6  74 N15       30.25S WCI  -3
SIDNEY         CLOUDY    15   8  73 NE17      30.21S WCI  -1
WHITECLAY        N/A     10   2  72 NE6         N/A  WCI   0
CRESCENT LAKE    N/A     13   4  65 N10G20      N/A  WCI   0
LISCO            N/A     20   5  54 N28         N/A  WCI   1
BIG SPRINGS      N/A     18  10  70 N8          N/A  WCI   8
LEWELLEN         N/A     13   2  62 NE8         N/A  WCI   2
$$

...OBSERVATIONS IN NORTH CENTRAL NEBRASKA...

CITY           SKY/WX    TMP DP  RH WIND       PRES   REMARKS
VALENTINE      CLOUDY     9   4  80 N7        30.35R HAZE    WCI  -2
THEDFORD       CLOUDY    11   5  76 N10       30.31R WCI  -2
AINSWORTH      LGT SNOW   8   3  80 N16       30.33S WCI -10
O`NEILL        CLOUDY     7   1  76 N16       30.35R WCI -11
ORD            CLOUDY     9   0  67 N18G24    30.32R WCI -10
BROKEN BOW     CLOUDY    13   5  70 N17       30.29R WCI  -4
BROWNLEE         N/A     30  25  80 N15         N/A  WCI  19
SPRINGVIEW       N/A      7   0  71 NW8         N/A  WCI  -5
BREWSTER         N/A     13   5  70 NE23        N/A  WCI  -6
ROSE             N/A     15  12  88 S12         N/A  WCI   1
NEWPORT          N/A     14   8  75 W10         N/A  WCI   1
SARGENT          N/A     11   4  74 N5G16       N/A  WCI   3
COMSTOCK         N/A     15   7  72 N16         N/A  WCI  -1
CHAMBERS         N/A      6  -3  67 N3G13       N/A
EWING            N/A      6   1  80 N13G20      N/A  WCI -10
$$

...OBSERVATIONS IN SOUTHWEST NEBRASKA AND FAR NORTHEAST COLORADO...

CITY           SKY/WX    TMP DP  RH WIND       PRES   REMARKS
WRAY           CLOUDY    20  14  78 N16       30.22R WCI   6
IMPERIAL         N/A     17   9  70 NE13      30.25R WCI   4
OGALLALA       CLOUDY    17   9  70 N18       30.27S WCI   1
NORTH PLATTE   CLOUDY    15   6  67 N15       30.28R WCI   0
MCCOOK         CLOUDY    18   8  65 N18       30.27R WCI   2
LEXINGTON      CLOUDY    16   8  70 N18       30.27S WCI  -1
PAXTON           N/A     16   9  74 N9          N/A  WCI   5
BRADY            N/A     14   6  70 CALM        N/A
GOTHENBURG       N/A     13   3  64 N16         N/A  WCI  -3
CALLAWAY         N/A     11   5  77 N18         N/A  WCI  -7
$$

...NORTH PLATTE AREA...

CITY           SKY/WX    TMP DP  RH WIND       PRES   REMARKS
AIRPORT        CLOUDY    15   6  67 N15       30.28R WCI   0
DOWNTOWN         N/A     14   5  67 N7G15       N/A  WCI   4
$$

...SOME WEATHER OBSERVATIONS FROM AROUND THE REGION...

CITY           SKY/WX    TMP DP  RH WIND       PRES   REMARKS
DENVER         LGT SNOW  18  15  88 NE21      30.15R FOG     WCI   1
LARAMIE        CLOUDY     9   7  92 CALM      30.05S
CHEYENNE       MIX PCPN  13   6  74 N17G25    30.10F WCI  -4
SCOTTSBLUFF    CLOUDY    16   9  74 NE16      30.25S WCI   1
RAPID CITY     LGT SNOW   8   4  83 N17       30.33F FOG     WCI -10
PIERRE         PTCLDY     3  -3  76 N13       30.43S WCI -14
WINNER         FAIR       4  -5  66 N10       30.40R WCI -11
SIOUX FALLS    CLEAR     -1  -8  72 N16       30.34R WCI -21
OMAHA          FLURRIES  10   4  76 N23       30.29R WCI -10
GRAND ISLAND   CLOUDY    11   3  70 N23       30.32R WCI  -9
KANSAS CITY    FRZ DRZL  18  12  77 N22G32    30.10R WCI   1
WICHITA        CLOUDY    25  15  66 N29G44    30.10R WCI   8
HAYS           CLOUDY    18   3  53 N16G23    30.23R WCI   3
LIBERAL        CLOUDY    28  18  64 N18G26    30.16R WCI  16
GOODLAND       CLOUDY    19  15  84 NE16      30.18R WCI   4
$$



USA.gov is the U.S. government's official web portal to all federal, state and local government web resources and services.